User: anonymous   Login
Location: Walnut Point State Park
(39.6958°N, 88.0345°W)
Time: 00:17:44
(UTC-05:00)
Language:

ATLAS 3B R/B - Orbit

View from above orbital plane
View from above orbital plane
View from above satellite
View from above satellite

Ground track
Ground track

The orbit data is extracted from the following two-line orbital elements,

1 28538U 05004B   16267.90095350 0.00000100  00000-0  16231-3 0    08
2 28538  63.8228 247.9157 0158000 196.8708 163.1292 13.43090874    08
Epoch (UTC): 23 September 2016 21:37:22
Eccentricity: 0.0158000
inclination: 63.8228°
perigee height: 979 km
apogee height: 1216 km
right ascension of ascending node: 247.9157°
argument of perigee: 196.8708°
revolutions per day: 13.43090874
mean anomaly at epoch: 163.1292°
orbit number at epoch: 0

The dashed part of the orbit path shows where the satellite is in the earth's shadow,  

DLR